Location: Unspecified
(35.7250°N, 0.0000°E)
Time: 05:49:32
(UTC+00:00)

Explorer 7 - Pass Details

Date: 25 June 2019
Orbit: 485 x 680 km, 50.3° (Epoch: 13 October)

Event Time Altitude Azimuth Distance (km) Brightness Sun altitude
Rises 12:15:37 0° 315° (NW) 2,910 10.4 77.3°
Reaches altitude 10° 12:18:20 10° 330° (NNW) 2,034 9.8 77.2°
Maximum altitude 12:22:04 23° 23° (NNE) 1,399 9.1 77.0°
Drops below altitude 10° 12:25:55 10° 76° (ENE) 2,096 9.8 76.7°
Sets 12:28:44 0° 90° (E) 3,023 10.5 76.4°
